RH
18 20 22 16 17 16 14 13 12 10 7 7 12 14 15 15 28 27 29 30 34 36 38 40 38 42 58 69 74 83 84 64 67 78 66 64 61 61 60 49 40 45 50 60
17 22 16 16 14 15 13 13 10 8 8 9 10 13 13 14 15 20 24 30 33 36 39 45 42 42 53 69 73 81 81 80 74 61 58 57 59 56 53 51 52 52 52 51
30 26 13 14 16 16 12 13 15 12 9 9 24 18 14 14 15 16 18 22 28 33 43 49 47 50 55 69 74 75 79 75 57 54 54 56 53 45 57 54 59 65 65 64
38 24 16 15 13 11 23 20 14 18 27 18 23 33 52 32 16 19 20 22 24 29 42 50 58 58 61 70 73 72 71 61 57 52 48 49 53 56 55 58 60 52 50 44
20 16 16 15 16 15 23 21 18 13 17 22 30 30 40 39 30 23 23 25 27 33 41 52 60 62 66 70 72 65 62 61 56 51 49 52 54 56 56 52 40 31 25 24
24 17 16 19 14 14 17 18 19 13 16 47 32 39 43 42 33 32 23 27 31 36 44 52 61 63 68 73 66 62 61 56 59 58 56 54 53 50 40 36 30 24 24 28
19 16 14 14 13 14 14 18 26 38 47 40 15 28 36 36 33 61 68 29 34 42 47 51 62 67 69 68 65 62 55 59 63 58 53 52 45 46 54 44 24 13 28 33
21 23 15 12 12 25 18 14 33 78 79 43 21 27 15 20 30 53 43 33 41 46 49 51 54 59 66 67 66 58 55 62 68 61 51 44 53 61 45 30 21 12 22 26
44 33 18 14 12 14 12 18 14 23 52 39 22 12 8 15 14 16 28 34 42 45 46 46 49 48 53 59 62 55 56 62 63 52 46 48 57 47 32 25 20 19 18 29
61 68 33 17 17 16 19 14 26 26 39 38 19 19 21 21 19 18 26 32 37 41 40 38 40 40 46 55 60 56 56 60 53 47 51 56 52 44 34 29 30 20 32 26
17 40 23 21 21 15 20 20 18 17 34 56 52 23 15 16 16 20 21 31 33 38 37 35 33 37 43 52 57 59 57 54 46 51 55 49 50 42 38 41 42 39 44 40
14 19 46 24 16 14 17 22 18 55 37 50 60 34 14 16 14 16 18 24 31 34 35 33 34 36 44 52 56 61 60 47 47 54 53 48 50 50 53 53 51 55 49 57
18 24 44 30 24 20 21 15 18 19 41 47 69 38 14 15 14 14 16 19 26 31 33 33 35 39 47 52 57 61 58 45 51 51 50 52 51 54 54 54 56 60 60 59
29 24 25 44 26 22 28 19 14 19 60 46 40 19 13 16 17 16 18 18 21 27 30 31 34 42 48 52 57 61 54 47 50 47 46 46 48 50 53 54 57 63 62 63
28 33 25 20 18 22 23 19 18 17 21 32 27 17 12 11 12 12 15 19 20 20 28 30 33 41 49 53 57 58 51 50 48 47 38 37 39 47 54 55 59 64 63 64
31 43 41 44 27 24 27 22 19 16 15 16 15 16 10 15 16 16 15 16 21 20 20 27 34 41 48 53 58 55 50 49 50 46 38 39 43 51 54 53 52 62 61 58
42 64 62 54 38 43 54 42 26 23 16 16 24 18 13 14 16 18 19 19 21 24 26 29 34 41 46 50 55 54 48 49 51 42 42 45 51 54 57 50 57 56 51 53
66 60 66 72 68 67 23 16 16 19 17 14 13 13 12 22 23 20 20 21 23 27 31 33 37 41 44 46 48 49 46 49 46 43 44 48 51 70 55 46 46 47 47 49
38 60 74 96 56 30 22 15 17 18 20 18 19 19 20 23 23 19 29 30 30 29 30 32 33 38 42 45 44 44 45 46 42 43 50 65 74 52 45 43 44 44 47 50
35 57 72 66 80 78 35 23 24 21 34 20 20 23 22 22 63 36 40 38 34 31 30 32 34 38 42 46 45 43 45 43 45 52 69 56 68 63 46 44 45 48 52 54
75 78 86 72 87 65 22 22 23 38 48 29 30 27 28 36 36 37 36 37 41 39 39 39 41 43 46 48 48 42 45 47 60 72 73 78 71 48 52 53 57 58 64 71
65 80 92 82 98 88 21 25 43 43 30 28 29 30 32 34 36 36 36 37 41 45 44 47 51 51 48 46 45 43 52 73 88 74 87 73 54 59 74 68 43 75 75 76
53 48 62 55 62 31 21 24 24 27 30 32 33 34 36 39 41 43 45 45 48 46 45 48 50 47 44 47 55 66 86 93 93 80 68 44 30 30 35 41 37 53 75 75
34 33 52 47 21 22 23 24 26 28 32 35 39 42 46 48 56 52 50 52 46 40 40 47 53 57 63 66 78 92 95 92 88 52 28 25 29 32 39 62 70 63 84 80
42 34 35 36 30 24 23 36 38 42 46 50 59 59 61 61 58 59 51 44 50 53 58 65 79 88 86 82 84 90 88 71 40 27 32 31 34 42 61 76 88 81 67 85
36 34 62 70 42 45 42 53 59 59 60 58 58 56 58 56 53 52 60 75 77 71 70 76 84 88 93 95 84 68 60 39 31 32 33 37 44 49 57 74 88 90 80 84
Wind_Speed
8 5 5 7 7 2 8 16 16 14 10 10 13 14 16 18 26 23 19 22 20 18 16 18 19 20 21 20 20 17 17 15 12 8 9 11 11 8 5 3 3 2 4 7
4 7 7 11 8 15 14 13 9 10 7 10 10 13 16 14 15 16 20 25 24 22 22 19 19 22 22 22 20 18 16 10 10 12 15 14 12 12 4 6 7 7 9 8
3 11 9 13 16 18 14 3 7 7 8 7 8 1 13 15 14 16 19 19 22 25 23 19 20 20 21 24 23 18 17 13 15 17 15 15 9 3 9 8 2 3 9 9
5 19 17 15 15 14 7 13 6 8 6 10 13 6 10 16 14 13 19 21 21 24 22 21 20 21 23 22 20 19 18 21 19 12 14 13 12 16 11 6 6 7 7 11
4 13 14 10 6 5 7 15 9 12 11 2 13 6 6 14 13 15 14 18 20 21 22 24 23 24 24 22 22 21 23 18 16 17 17 16 11 9 6 7 7 7 11 11
5 17 10 6 5 2 8 8 15 10 9 2 8 10 7 12 23 4 16 14 15 20 22 22 25 22 24 24 23 25 21 17 17 20 20 19 16 12 8 6 7 11 9 12
7 17 4 10 7 5 8 9 7 3 5 7 13 9 8 20 14 15 24 24 20 19 22 25 27 28 29 27 27 25 20 20 19 20 19 17 11 4 5 6 10 11 10 11
11 14 11 9 9 6 14 10 4 6 4 10 5 4 4 16 33 44 39 24 22 22 21 22 25 25 24 25 24 22 23 20 19 19 17 11 6 6 8 10 11 9 10 11
4 4 11 2 6 3 5 9 8 4 16 6 4 14 15 8 10 7 23 23 22 20 21 24 26 25 26 24 24 25 24 22 21 19 16 10 6 7 9 8 8 8 11 11
11 7 20 6 4 5 6 9 3 3 3 5 8 9 3 4 5 2 13 19 21 21 22 23 25 25 25 24 24 25 24 25 22 21 15 11 8 7 7 7 8 10 11 12
7 19 7 7 8 10 7 8 8 7 4 1 4 2 7 7 5 5 7 20 21 23 23 25 26 26 24 25 25 27 26 26 25 24 15 11 8 10 8 7 9 10 12 11
8 3 3 8 5 4 9 9 12 3 5 2 0 6 4 4 3 2 6 14 24 26 26 27 27 26 27 25 26 26 27 26 26 20 16 14 14 10 9 8 9 11 13 11
2 3 4 8 8 7 8 12 9 4 3 4 3 4 4 3 1 3 5 9 18 24 25 27 28 29 26 25 26 27 28 27 23 17 20 16 15 12 10 11 11 12 11 14
4 5 8 7 11 7 13 12 12 11 3 3 8 14 8 11 9 9 7 9 11 19 21 25 27 29 27 25 27 27 26 26 20 22 18 16 15 12 10 12 14 13 13 14
2 7 11 14 16 2 12 7 11 13 10 10 10 14 11 9 5 3 3 11 10 15 22 24 25 25 26 26 26 27 27 26 24 21 17 15 15 14 14 12 15 15 15 17
4 2 4 3 10 14 12 14 13 14 12 13 14 13 9 11 11 9 7 7 6 12 16 15 17 18 22 23 27 27 27 25 25 21 19 15 12 11 10 15 20 17 16 14
7 3 2 2 5 7 5 8 15 15 14 10 10 9 7 2 1 8 7 9 7 12 14 14 14 18 20 23 26 28 28 25 23 21 18 14 12 10 19 15 15 15 17 18
4 3 2 1 1 1 9 1 5 5 9 11 12 9 6 14 12 8 11 11 11 6 8 10 13 17 21 22 23 26 24 24 20 18 15 14 11 12 11 15 16 17 18 18
6 4 1 2 4 7 11 2 2 1 3 11 9 11 13 12 10 8 15 8 7 7 7 10 12 16 18 20 22 24 24 20 17 16 13 11 9 10 18 16 15 17 20 20
3 4 1 3 2 4 1 4 3 1 3 9 10 9 9 8 3 4 12 10 10 12 15 15 14 14 17 17 19 20 19 13 15 10 9 6 13 15 16 18 18 18 19 19
3 1 4 3 2 5 2 4 2 2 3 6 6 9 10 5 8 14 14 14 12 14 15 15 10 8 10 12 15 12 13 14 12 9 9 10 10 18 16 19 19 20 20 18
5 5 3 1 2 6 5 5 3 5 4 9 8 8 9 10 11 14 14 15 10 10 14 6 4 4 6 10 13 17 13 10 10 8 6 8 16 15 16 20 21 17 17 14
2 4 2 7 3 5 7 4 3 2 4 6 7 8 10 11 13 13 14 15 7 7 4 2 5 8 11 12 11 14 12 7 3 5 9 17 19 20 18 19 20 13 11 12
4 4 1 2 3 7 10 5 7 1 3 6 9 11 9 10 10 13 13 6 4 7 9 9 7 6 7 7 7 5 5 2 4 12 17 18 19 16 17 16 18 13 12 12
1 9 7 6 9 9 1 10 9 6 6 6 7 9 9 9 9 8 7 12 13 10 11 10 7 4 4 2 3 1 1 6 14 16 17 16 15 15 15 14 17 23 17 18
8 4 3 3 8 4 8 9 7 8 10 9 8 9 13 11 11 6 14 11 6 4 1 2 0 3 3 2 3 4 10 13 15 15 15 15 15 17 17 16 15 19 25 21
Wind_Direction
190 214 227 203 249 213 239 226 214 194 171 229 138 151 175 197 168 169 168 152 154 169 162 167 175 171 169 171 170 174 184 176 161 177 139 141 129 141 162 130 70 356 48 3
177 258 162 232 281 249 259 259 187 131 170 223 200 175 179 197 197 176 177 171 169 180 177 178 182 179 181 177 178 175 186 174 161 161 159 149 152 155 179 20 18 338 330 320
65 285 229 247 219 244 257 247 216 158 196 218 352 265 178 186 204 203 197 192 181 181 169 182 186 185 185 178 180 177 181 168 176 181 188 181 179 123 107 91 124 335 329 330
123 247 234 233 238 236 358 344 199 170 314 211 179 185 47 308 211 200 201 202 194 181 172 183 190 189 190 183 184 184 174 181 182 154 165 153 143 161 180 170 241 284 276 283
224 209 230 217 316 13 169 273 263 251 228 272 326 325 203 239 259 213 223 209 191 175 180 182 188 194 192 187 180 178 175 184 172 179 185 178 176 138 188 234 283 295 300 306
232 285 274 88 192 276 175 238 259 275 266 182 216 201 241 211 241 293 195 209 207 184 177 183 187 193 186 176 175 178 173 167 168 176 180 190 191 191 215 284 309 306 314 306
173 242 113 175 174 192 210 227 243 325 306 280 256 169 223 209 208 141 215 195 194 183 179 181 177 174 169 170 178 179 169 170 183 194 196 199 199 223 276 303 305 317 299 302
227 198 183 212 231 116 258 254 244 164 293 297 11 227 333 150 196 178 202 176 177 180 177 176 173 172 173 180 185 175 180 177 182 194 193 185 214 271 274 291 293 299 296 293
31 286 318 36 252 286 293 247 285 332 196 252 288 287 286 85 103 137 158 170 174 183 184 185 181 182 183 187 186 183 183 183 190 196 192 210 237 271 258 264 291 300 295 290
164 346 268 196 249 257 268 332 281 282 315 285 291 300 303 135 123 216 164 169 179 186 190 192 187 188 190 194 196 192 190 194 192 200 205 227 249 256 242 277 293 300 290 300
232 207 154 145 212 247 185 238 245 288 260 296 313 309 35 34 34 152 225 175 183 188 198 197 198 197 198 199 201 198 196 200 195 205 210 213 252 226 242 270 282 293 292 309
250 311 258 230 267 296 314 288 209 172 269 161 98 278 35 80 52 37 228 205 187 192 199 202 205 207 198 204 203 205 202 204 207 210 212 217 211 216 229 236 267 270 298 299
271 232 266 291 190 213 248 253 266 244 74 213 170 264 163 152 281 308 258 247 200 194 202 207 205 205 207 210 209 208 208 209 209 209 212 217 208 217 223 254 267 275 291 292
342 243 247 238 250 328 200 239 239 233 145 235 258 272 240 202 210 197 207 277 247 209 217 215 210 205 207 211 210 214 213 212 218 212 219 211 216 221 240 256 268 274 285 288
233 242 263 270 262 258 298 265 232 235 228 234 250 259 280 355 354 73 51 196 249 272 219 222 218 208 203 208 215 216 216 219 218 219 218 223 234 233 254 274 269 283 279 297
198 234 315 306 292 289 270 277 270 276 264 253 266 265 296 50 22 18 336 304 267 277 288 244 230 223 212 213 216 215 218 219 220 219 221 224 224 243 245 285 270 278 288 293
162 135 132 242 24 348 325 244 254 266 267 259 258 273 308 306 5 19 336 313 267 275 282 277 250 237 232 226 222 217 216 221 219 216 223 233 235 231 303 295 281 279 280 280
108 150 118 120 320 302 248 14 320 289 286 279 282 292 1 55 40 348 311 290 306 280 286 277 258 244 239 232 227 217 216 219 214 217 222 228 247 307 294 278 282 285 285 284
164 138 147 145 216 278 314 205 329 319 340 27 28 24 36 41 9 12 29 23 351 351 313 289 277 254 241 232 226 219 209 212 214 214 227 269 309 277 283 284 283 284 285 284
91 55 193 163 238 223 115 67 9 353 199 57 38 29 358 351 4 22 13 9 343 315 308 302 288 267 247 234 219 207 198 196 204 231 296 240 279 304 286 279 286 282 280 281
97 187 185 155 239 296 74 115 329 236 69 54 10 352 352 339 351 338 331 317 314 323 320 305 297 274 239 219 212 201 191 192 213 220 229 259 311 275 285 284 281 279 282 284
168 158 188 117 150 267 142 122 131 62 355 1 347 341 334 316 310 307 311 316 323 331 331 351 213 195 164 178 189 181 187 199 195 200 274 301 273 276 282 282 296 298 291 287
190 189 188 177 204 148 182 27 15 325 314 320 319 318 325 326 326 325 322 322 326 358 2 123 154 153 148 156 165 166 163 141 22 2 280 270 274 281 289 297 307 300 309 288
205 107 193 46 229 206 213 235 292 317 322 345 337 323 340 335 342 328 333 23 51 100 101 101 126 136 122 135 138 102 78 38 298 277 280 282 288 296 304 309 314 306 274 278
10 151 203 216 256 284 41 56 58 34 355 352 9 15 28 14 355 6 51 82 86 115 120 131 128 131 123 73 293 215 337 272 268 280 291 295 301 304 302 298 287 296 291 266
192 223 173 212 72 16 31 53 46 62 56 47 52 60 53 58 68 119 104 100 108 77 26 295 168 164 196 290 11 273 270 294 299 298 299 300 305 306 308 308 301 289 305 305